Bella Coola Airport
CYBD : now visible

Airfield :











YOU CAN JOIN US ON...

 
LOGIN :

Register | Disclaimer

   EN    FR    IT 

 









Legend :    VFR   Marginal VFR   IFR   Intensive IFR   Very Intensive IFR
Visi :
Ceiling :
>= 8 km
>= 3000ft
5 to 8 km
1000 to 3000 ft
1500m to 5 km
500 to 1000 ft
800 to 1500m
200 to 500 ft
< 800m
< 200 ft
Symbols :   Thunderstorms  Fog  Heavy snow  Heavy precipitations  Wind > 20 kt






- Airport Elevation : 117 ft
- IATA code : QBC


CYBD - Bella Coola

CURRENT METAR :
  • 271400Z 36003KT 340V100 4SM -RA BR FEW005 SCT015 BKN027 OVC060 11/10 A2939 RMK SF1SC2SC3SC2 VIS W 2 SLP953 DENSITY ALT 300FT

EXPIRED METARs :
  • 271300Z VRB02KT 3SM -RA BR FEW006 SCT022 OVC054 11/11 A2937 RMK SF1SC3SC5 SF TR VIS W 1 SLP949 DENSITY ALT 300FT

TAF N/A
CZVR FIR / North America



MET'MAP, your aeronautical weather chart ! - Copyright ORBIFLY December 2007 - Disclaimer

ORBIFLY MET'MAP TEAM :

Programming & Development : Alexandra Zaïnal
Concept & original design : Baudouin d'Aumeries
Assistance for programming : Marc-Olivier Méhu
Technical & hardware support : Manuel Goepfert

Contact : metmap@orbifly.com




SOURCES & CREDITS :

   NOAA       Earth
Advisory